Flag for Greenland Weather past 2 weeks in Nuuk, Greenland

Now
43 °F

Partly sunny.


Feels Like: 35 °F
Forecast: 45 / 49 °F
Wind: 15 mph from Southwest

Location: Godthaab / Nuuk

Current Time: Aug 27, 2015 at 10:26:47 PM

Latest Report: Aug 27, 2015 at 9:50 PM


Visibility: N/A

Pressure: 29.77 "Hg

Humidity: 81%

Dew point: 37 °F

Location of NuukLocation

Historic Weather in Nuuk — Graph

°F

Nuuk temperature yesterday

Maximum temperature yesterday: 57 °F (at 4:50 PM)
Minimum temperature yesterday: 37 °F (at 5:50 AM)
Average temperature yesterday: 46 °F

Past Weeks' High & Low Weather Summary

 TemperatureHumidityPressure
High59 °F (Aug 14, 3:50 PM)100% (Aug 14, 12:50 AM)30.15 "Hg (Aug 14, 12:50 AM)
Low34 °F (Aug 24, 4:50 AM)32% (Aug 22, 11:50 AM)29.65 "Hg (Aug 16, 11:50 PM)
Average45 °F77%29.92 "Hg
* Reported Aug 12 8:50 PM — Aug 27 8:50 PM, Nuuk, Weather by CustomWeather, © 2015

Note: Actual official high and low records may vary slightly from our data, if they occured in-between our weather recording intervals... More about our weather records

Advertising

Nuuk weather history for previous 24 hours

 ConditionsComfort  
Time TempWeatherWind HumidityBarometerVisibility
8:50 PM
Thu, Aug 27
43 °FPartly sunny.10 mph81%29.77 "HgN/A
7:50 PM41 °FPartly sunny.16 mph87%29.80 "HgN/A
7:20 PM41 °FPartly sunny.14 mph93%29.80 "HgN/A
6:50 PM41 °FBroken clouds.13 mph93%29.80 "HgN/A
5:50 PM43 °FPartly sunny.12 mph87%29.83 "HgN/A
4:50 PM45 °FPartly sunny.13 mph81%29.83 "HgN/A
3:50 PM43 °FBroken clouds.13 mph87%29.83 "HgN/A
2:50 PM45 °FBroken clouds.13 mph81%29.86 "HgN/A
1:50 PM45 °FBroken clouds.12 mph81%29.86 "HgN/A
12:50 PM46 °FFog.9 mph76%29.86 "HgN/A
11:50 AM46 °FPartly sunny.8 mph71%29.89 "HgN/A
10:50 AM50 °FPartly sunny.5 mph50%29.86 "HgN/A
9:50 AM48 °FBroken clouds.5 mph62%29.86 "HgN/A
8:50 AM48 °FBroken clouds.1 mph58%29.89 "HgN/A
7:50 AM45 °FPartly sunny.No wind66%29.89 "HgN/A
6:50 AM45 °FPassing clouds.2 mph66%29.89 "HgN/A
5:50 AM41 °FPassing clouds.2 mph76%29.92 "HgN/A
4:50 AM45 °FQuite cool.2 mph61%29.92 "HgN/A
3:50 AM45 °FQuite cool.7 mph71%29.92 "HgN/A
2:50 AM45 °FPassing clouds.16 mph76%29.92 "HgN/A
1:50 AM43 °FQuite cool.13 mph81%29.95 "HgN/A
12:50 AM45 °FQuite cool.12 mph76%29.95 "HgN/A
11:50 PM
Wed, Aug 26
46 °FCool.13 mph66%29.95 "HgN/A
10:50 PM46 °FCool.12 mph71%29.98 "HgN/A
Weather by CustomWeather, © 2015

See weather overviewHow to use our weather pages